Weather Roundup
Issued by NWS

Home | Current Version | Previous Version | Text Only | Print | Product List | Glossary On
Versions: 1 2 3 4 5 6 7 8 9 10 11 12 13 14 15 16 17 18 19 20 21 22 23 24 25 26 27 28 29 30 31 32 33 34 35 36 37 38 39 40 41 42 43 44 45 46 47 48 49 50
000
NZUS93 KARX 200010
HRRWXR

CURRENT HOURLY OBSERVATIONS ACROSS
MUCH OF THE UPPER MISSISSIPPI VALLEY
NATIONAL WEATHER SERVICE LA CROSSE WI
700 PM CDT FRI SEP 19 2014


...SOUTHEAST MINNESOTA...


CITY           SKY/WX    TMP DP  RH WIND       PRES   REMARKS
ROCHESTER      PTCLDY    73  62  68 S14G24    29.78S
ROCHESTER/MAYO CLOUDY    74  60  60 S14G20    29.77R
WINONA         PTCLDY    73  61  64 S5        29.77S
AUSTIN         CLOUDY    73  64  73 S10G17    29.77S
ALBERT LEA     CLEAR     79  64  61 S10G17    29.75S
DODGE CENTER   MOCLDY    75  64  69 S13G20    29.75S
PRESTON        CLEAR     71  64  79 S13G23    29.80R
OWATONNA       PTCLDY    79  64  61 S14G20    29.72S
FARIBAULT      MOCLDY    81  61  50 S7        29.70S
$$

...ELSEWHERE IN MINNESOTA...


CITY           SKY/WX    TMP DP  RH WIND       PRES   REMARKS
MINNEAPOLIS    MOCLDY    74  63  68 CALM      29.67S
INTNL FALLS    CLOUDY    64  62  93 S7        29.56F
DULUTH         CLOUDY    64  60  87 SW10      29.64S FOG
RED WING       CLOUDY    79  63  57 S13G18    29.68F
REDWOOD FALLS  CLOUDY    80  67  64 SW6       29.66R
MANKATO        MOCLDY    81  63  54 S10       29.68S
WORTHINGTON    PTCLDY    81  66  61 SW10G18   29.72S
FAIRMONT       PTCLDY    81  57  44 S13G21    29.71F
$$

...SOUTHWEST WISCONSIN...


CITY           SKY/WX    TMP DP  RH WIND       PRES   REMARKS
LA CROSSE      PTCLDY    72  57  59 S9        29.78R
PRAIRIE DU CHI PTCLDY    71  54  53 SE7       29.82F
BOSCOBEL       PTCLDY    73  53  49 S15G26    29.83F
LONE ROCK      CLEAR     74  52  46 S15       29.85F
PLATTEVILLE    CLEAR     69  54  57 S12G17    29.90F
FORT MC COY    CLEAR     70  52  52 S8        29.79F
CAMP DOUGLAS   CLEAR     70  55  58 S9G21     29.80R
VIROQUA        FAIR      68  54  59 S10G21    29.81S
WIS DELLS      CLEAR     68  49  50 S17G26    29.83F
$$

...ELSEWHERE IN WISCONSIN...


CITY           SKY/WX    TMP DP  RH WIND       PRES   REMARKS
MILWAUKEE      MOCLDY    65  51  60 S10       29.95F
MADISON        MOCLDY    71  51  49 S18G24    29.89F
GREEN BAY      PTCLDY    68  50  52 S13       29.82F
EAU CLAIRE     CLOUDY    73  59  61 S14       29.72F
BLACK RVR FLS  FAIR      70  55  59 SW5       29.78S
MEDFORD        CLOUDY    66  55  69 S10       29.79F
WAUSAU         MOCLDY    68  53  58 SW12G24   29.79R
WIS RAPIDS     PTCLDY    69  52  54 S15G31    29.81S
MARSHFIELD     PTCLDY    68  54  60 SW9       29.80R
RICE LAKE      CLOUDY    70  59  68 S9        29.71S
$$

...NORTHEAST IOWA...


CITY           SKY/WX    TMP DP  RH WIND       PRES   REMARKS
WATERLOO       CLEAR     72  60  66 S18G30    29.81F
DUBUQUE        PTCLDY    69  54  58 S17       29.89F
DECORAH        PTCLDY    70  59  68 S13G25    29.78F
MASON CITY     CLEAR     75  65  70 S16G24    29.80R
CHARLES CITY   CLEAR     73  61  64 S17G31    29.78F
OELWEIN        CLEAR     70  59  68 S20G26    29.84F
$$

...ELSEWHERE IN IOWA...


CITY           SKY/WX    TMP DP  RH WIND       PRES   REMARKS
DES MOINES     PTCLDY    76  65  68 S14       29.85S
IOWA CITY      CLEAR     71  59  65 S10       29.92F
FORT DODGE     CLEAR     75  66  73 S18       29.80R
MARSHALLTOWN   CLEAR     73  62  68 S16G28    29.84S
CEDAR RAPIDS   CLEAR     71  59  65 S12G22    29.89F
$$

...NORTHERN ILLINOIS...


CITY           SKY/WX    TMP DP  RH WIND       PRES   REMARKS
CHICAGO-OHARE  MOCLDY    72  44  36 S9        29.98F
DUPAGE         CLEAR     66  47  50 S8        29.99F
CHICAGO-MIDWAY MOCLDY    73  45  36 S10       30.00S
MOLINE         CLEAR     71  54  54 S7        29.94F
ROCKFORD       MOCLDY    68  50  52 S12       29.97F
STERLING       PTCLDY    70  54  56 CALM      29.96F
PEORIA         CLEAR     70  54  56 S7        29.99F
$$

NOTE: "FAIR" INDICATES FEW OR NO CLOUDS BELOW 12,000 FEET WITH NO
SIGNIFICANT WEATHER AND/OR OBSTRUCTIONS TO VISIBILITY. WIND
SPEEDS ARE IN MILES-PER-HOUR.



USA.gov is the U.S. government's official web portal to all federal, state and local government web resources and services.